RAAVANA-1 (44330 NORAD) Tracking and Keplerian Element Data

This shows tracking and keplerian element data for the satellite.

Feedback or suggestion? Click here.




ElementValue
Catalog44330
NameRAAVANA-1
Epoch Orbit523
Epoch Day201.84352327
Epoch Year2019
RAAN194.0459
Inclination51.6398
Eccentricity0.0006829
Argument of Perigee198.2171
Mean Anonmoly161.8575
Mean Motion15.52243456
Decay Rate3.696E-05
L11 44330U 98067QF 19201.84352327 .00003696 00000-0 67327-4 0 9994
L22 44330 51.6398 194.0459 0006829 198.2171 161.8575 15.52243456 5234

Live tracking and technical data element details for RAAVANA-1 (NORAD 44330). RAAVANA-1 can be tracked NOW for your location showing map with azimuth and elevation plus other details from your city location.

Track the satellite on the map from your city or location and see movement details for azimuth, elevation, latitude, longitude, range, height, and movement on the map or in text.







IsCatalogInMostPopularTable: catalog: 44330, numindb: 9
Update: records affected: 1



GetName: 44330 RAAVANA-1

Hit Count: updated at: Mon, 22 Jul 2019 04:12:35 GMT